Location: Baia Mare
(47.6567°N, 23.5850°E)
Time: 11:26:18
(UTC+03:00)

ISS - Pass Details

Date: 13 May 2018
Orbit: 402 x 407 km, 51.6° (Epoch: 23 May)

Event Time Altitude Azimuth Distance (km) Brightness Sun altitude
Exits shadow 03:55:40 19° 279° (W) 1,046 -2.0 -15.6°
Maximum altitude 03:57:46 48° 347° (NNW) 539 -3.0 -15.4°
Drops below altitude 10° 04:00:57 10° 64° (ENE) 1,459 0.0 -15.0°
Sets 04:03:05 0° 70° (ENE) 2,320 1.1 -14.8°
